Zurück zum Katalog

STARLINK-36636

AktivKommunikationSSO
NORAD 67611·PAYLOAD·🇺🇸 United States

Gestartet Jan 29, 2026 von Vandenberg Space Force Base

Loading…

Nächste Überflüge (nächste 24 Stunden)

TLE

AktuellSource: CelesTrak SupGP

Epoche: Sep 14, 2026, 23:17 UTC

1 67611C 26018Y   26257.97062500  .00003365  00000+0  10446-3 0  2570
2 67611  97.2850 321.4253 0000804  90.4091  48.7201 15.33434010    16

Verfolge STARLINK-36636 in Echtzeit mit AllMySat

Download on the App Store